Whiteman AFB, MO

12:47 PM CDT on May 21, 2018 (GMT -0500)
Whiteman Air Force Base

Weather History for KSZL - March, 2015

Change the Weather History Date:

Thursday, March 12, 2015

  Actual Average Record
Temperature  
Mean Temperature 58 °F -  
Max Temperature 72 °F 49 °F 76 °F (2008)
Min Temperature 43 °F 30 °F 3 °F (1998)
Degree Days  
Heating Degree Days 8    
Growing Degree Days 8 (Base 50)    
Moisture  
Dew Point 40 °F    
Average Humidity 56    
Maximum Humidity 81    
Minimum Humidity 28    
Precipitation  
Precipitation 0.00 in - - ()
Sea Level Pressure  
Sea Level Pressure 30.26 in    
Wind  
Wind Speed 8 mph (SE)    
Max Wind Speed 14 mph    
Max Gust Speed -    
Visibility 10 miles    
Events Rain    
Averages and records for this station are not official NWS values.
T = Trace of Precipitation, MM = Missing Value Source: NWS Daily Summary

Daily Weather History Graph

Daily Weather History Graph

Search for Another Location

Airport or City:

Astronomy

Mar. 12, 2015 Rise Set
Actual Time 7:30 AM CDT 7:18 PM CDT
Civil Twilight 7:03 AM CDT 7:44 PM CDT
Nautical Twilight 6:33 AM CDT 8:15 PM CDT
Astronomical Twilight 6:02 AM CDT 8:46 PM CDT
Moon 1:00 AM CDT (3/12) 11:27 AM CDT (3/12)
Length of Visible Light 12h 40m
Length of Day
11h 47m
Waning Gibbous, 61% of the Moon is Illuminated
Mar 12
Waning Gibbous
Mar 13
Last Quarter
Mar 20
New
Mar 27
First Quarter
Apr 4
Full

Hourly Weather History & Observations

Time (CDT) Temp. Windchill Dew Point Humidity Pressure Visibility Wind Dir Wind Speed Gust Speed Precip Events Conditions
12:58 AM 51.4 °F - 41.2 °F 68% 30.31 in 10.0 mi ESE 6.9 mph - N/A   Clear
1:58 AM 49.8 °F - 40.3 °F 70% 30.30 in 10.0 mi ESE 6.9 mph - N/A   Clear
2:58 AM 47.7 °F - 39.4 °F 73% 30.29 in 10.0 mi ESE 8.1 mph - N/A   Clear
3:58 AM 46.4 °F 42.9 °F 39.0 °F 75% 30.27 in 10.0 mi SE 6.9 mph - N/A   Clear
4:58 AM 44.6 °F 40.2 °F 38.5 °F 79% 30.28 in 10.0 mi SE 8.1 mph - N/A   Clear
5:58 AM 44.6 °F 40.7 °F 38.3 °F 79% 30.29 in 10.0 mi SE 6.9 mph - N/A   Clear
6:58 AM 43.5 °F 40.1 °F 38.1 °F 81% 30.29 in 10.0 mi SE 5.8 mph - N/A   Mostly Cloudy
7:58 AM 43.7 °F 41.1 °F 38.1 °F 81% 30.30 in 10.0 mi SSE 4.6 mph - N/A   Mostly Cloudy
8:55 AM 47.1 °F - 40.5 °F 78% 30.32 in 10.0 mi SE 4.6 mph - N/A   Clear
9:55 AM 56.1 °F - 41.4 °F 58% 30.33 in 10.0 mi South 6.9 mph - N/A   Mostly Cloudy
10:55 AM 61.2 °F - 41.4 °F 48% 30.32 in 10.0 mi SSE 4.6 mph - N/A   Mostly Cloudy
11:55 AM 66.4 °F - 42.8 °F 42% 30.31 in 10.0 mi South 11.5 mph - N/A   Mostly Cloudy
12:55 PM 68.0 °F - 44.6 °F 43% 30.29 in 10.0 mi Variable 6.9 mph - N/A   Mostly Cloudy
1:55 PM 70.0 °F - 41.0 °F 35% 30.27 in 10.0 mi SE 10.4 mph - N/A   Scattered Clouds
2:55 PM 70.7 °F - 36.3 °F 28% 30.23 in 10.0 mi Variable 4.6 mph - N/A   Scattered Clouds
3:55 PM 72.0 °F - 37.0 °F 28% 30.20 in 10.0 mi ENE 13.8 mph - N/A   Scattered Clouds
4:55 PM - - - N/A% 30.20 in 10.0 mi East 12.7 mph - N/A   Scattered Clouds
5:55 PM 68.0 °F - 37.2 °F 32% 30.18 in 10.0 mi ESE 11.5 mph - N/A   Scattered Clouds
6:55 PM 64.8 °F - 38.1 °F 37% 30.22 in 10.0 mi East 4.6 mph - N/A   Mostly Cloudy
7:55 PM 59.9 °F - 39.2 °F 46% 30.19 in 10.0 mi East 8.1 mph - N/A   Scattered Clouds
8:55 PM 59.5 °F - 38.8 °F 46% 30.19 in 10.0 mi East 6.9 mph - N/A   Mostly Cloudy
9:55 PM 58.8 °F - 39.4 °F 49% 30.19 in 10.0 mi East 8.1 mph - N/A   Scattered Clouds
10:55 PM 58.3 °F - 41.2 °F 53% 30.29 in 10.0 mi SE 6.9 mph - N/A   Mostly Cloudy
11:55 PM 56.8 °F - 45.3 °F 65% 30.19 in 7.0 mi SSE 13.8 mph - N/A Rain Light Rain